This is the latest recevied weather packets stored in our database for station/object SQ7IQO. If no packets are shown the sender has not sent any weather packets the latest 10 day(s).
| Time | Temp. | Humidity | Pressure | Rain* | Wind** | Luminosity | Snow |
|---|---|---|---|---|---|---|---|
| 1787984021 | 17.22° C | 97% | 1012.7 hPa | 19.81 mm | 0.45 m/s, ° | - | - |
| 1787983961 | 17.22° C | 97% | 1012.8 hPa | 19.81 mm | 1.34 m/s, ° | - | - |
| 1787983901 | 17.22° C | 97% | 1012.8 hPa | 19.81 mm | 0 m/s | - | - |
| 1787983841 | 17.22° C | 97% | 1012.8 hPa | 19.81 mm | 0 m/s | - | - |
| 1787983781 | 17.22° C | 97% | 1012.8 hPa | 19.81 mm | 0.89 m/s, ° | - | - |
| 1787983721 | 17.22° C | 97% | 1012.7 hPa | 19.81 mm | 0.45 m/s, ° | - | - |
| 1787983661 | 17.22° C | 97% | 1012.8 hPa | 19.81 mm | 0.89 m/s, ° | - | - |
| 1787983601 | 17.22° C | 97% | 1012.8 hPa | 19.81 mm | 0.45 m/s, ° | - | - |
| 1787983541 | 17.22° C | 97% | 1012.8 hPa | 19.81 mm | 0 m/s | - | - |
| 1787983481 | 17.22° C | 97% | 1012.8 hPa | 19.81 mm | 0.45 m/s, ° | - | - |
| 1787983421 | 17.22° C | 97% | 1012.7 hPa | 35.81 mm | 0.45 m/s, ° | - | - |
| 1787983361 | 17.22° C | 97% | 1012.7 hPa | 35.81 mm | 0 m/s | - | - |
| 1787983301 | 17.22° C | 97% | 1012.7 hPa | 35.81 mm | 0.89 m/s, ° | - | - |
| 1787983241 | 17.22° C | 97% | 1012.7 hPa | 35.81 mm | 0.89 m/s, ° | - | - |
| 1787983181 | 17.22° C | 97% | 1012.7 hPa | 35.81 mm | 0.89 m/s, ° | - | - |
| 1787983121 | 17.22° C | 97% | 1012.7 hPa | 35.81 mm | 0 m/s | - | - |
| 1787983061 | 17.22° C | 97% | 1012.8 hPa | 52.83 mm | 0.89 m/s, ° | - | - |
| 1787983001 | 17.22° C | 97% | 1012.8 hPa | 52.83 mm | 0.45 m/s, ° | - | - |
| 1787982941 | 17.22° C | 97% | 1012.7 hPa | 52.83 mm | 0.45 m/s, ° | - | - |
| 1787982881 | 17.22° C | 98% | 1014 hPa | 52.83 mm | 0.45 m/s, ° | - | - |
| 1787982821 | 17.22° C | 98% | 1012.7 hPa | 52.83 mm | 0.45 m/s, ° | - | - |
| 1787982761 | 17.22° C | 98% | 1012.7 hPa | 52.83 mm | 0 m/s | - | - |
| 1787982701 | 17.22° C | 98% | 1012.6 hPa | 52.83 mm | 0.45 m/s, ° | - | - |
| 1787982641 | 17.22° C | 98% | 1012.7 hPa | 52.83 mm | 0 m/s | - | - |
| 1787982581 | 17.22° C | 98% | 1012.7 hPa | 52.83 mm | 0 m/s | - | - |
* Rain latest hour (hover to see other rain measurements)
** Current wind speed in m/s (hover to see current wind gust speed)